[[{"header":{"parameterUnit":"m.s-1","parameterCategory":1,"la1":30.2991,"la2":30.254,"lo1":-89.0895,"lo2":-89.0444,"dy":0.0017,"dx":0.0017,"nx":28,"ny":28,"refTime":"2023-09-02T21:00:00:Z","depth":0,"parameterNumber":2,"parameterNumberName":"U-component_of_WINDS"},"data":[0,0,0,0,0,0,0,0,0,0,0,0,0,0,0,0,0,0,0,0,0,0,0,0,0,0,0,0,0,0,0,0,0,0,0,0,0,0,0,0,0,0,0,0,0,0,0,0,0,0,0,0,0,0,0,0,0,0,-4.1464,-4.1466,0,-4.1573,-4.1575,-4.1576,-4.159,-4.1589,-4.1588,-4.1587,-4.1693,-4.1697,-4.1701,0,0,0,0,0,0,0,0,0,0,0,0,0,-4.1264,-4.1267,-4.1464,-4.1466,-4.1467,-4.1573,-4.1575,-4.1576,-4.159,-4.1589,-4.1588,-4.1587,-4.1692,-4.1697,-4.1701,0,0,0,0,0,0,0,0,0,0,0,0,0,-4.1359,-4.1269,-4.1464,-4.1487,-4.149,-4.1573,-4.1575,-4.1577,-4.1591,-4.1589,-4.1588,-4.1586,-4.1691,-4.1696,-4.1702,-4.1767,0,0,-4.1719,-4.1722,0,0,0,0,0,0,0,0,-4.1354,-4.1367,-4.1482,-4.1486,-4.1489,-4.1567,-4.1543,-4.164,-4.1591,-4.1552,-4.1587,-4.1585,-4.1652,-4.1661,-4.1685,-4.1772,-4.1777,-4.172,-4.1723,-4.1725,-4.1727,0,0,0,0,0,0,0,-4.1347,-4.1362,-4.1507,-4.1484,-4.1488,-4.149,-4.1502,-4.1561,-4.1609,-4.1556,-4.1557,-4.157,-4.1654,-4.1679,-4.1687,-4.1778,-4.1719,-4.1724,-4.1728,-4.173,-4.1925,-4.1927,0,0,0,0,0,0,-4.1337,-4.1357,-4.1504,-4.1511,-4.1417,-4.1495,-4.1509,-4.1543,-4.1609,-4.1617,-4.1571,-4.157,-4.167,-4.168,-4.1691,-4.1771,-4.1725,-4.1731,-4.1734,-4.1923,-4.1925,-4.1927,0,0,0,0,0,0,-4.1333,-4.135,-4.1499,-4.1434,-4.1453,-4.15,-4.1539,-4.1546,-4.1572,-4.1621,-4.1629,-4.1588,-4.1669,-4.1683,-4.1749,-4.1775,-4.1733,-4.1738,-4.1921,-4.1924,-4.1926,-4.1931,0,0,0,0,0,0,-4.1327,-4.1349,-4.1375,-4.1435,-4.1457,-4.1556,-4.1541,-4.155,-4.1582,-4.1582,-4.1639,-4.1647,-4.1669,-4.174,-4.1754,-4.1782,-4.1743,-4.1919,-4.1922,-4.1926,-4.1929,-4.1934,-4.1938,0,0,0,0,0,-4.132,-4.1371,-4.1376,-4.1394,-4.1491,-4.1558,-4.157,-4.1596,-4.1584,-4.161,-4.1642,-4.1645,-4.1771,-4.1747,-4.1763,-4.1792,-4.1917,-4.1921,-4.1925,-4.1927,-4.1933,-4.1938,0,0,0,0,0,0,-4.131,-4.1379,-4.1385,-4.1458,-4.1502,-4.156,-4.1593,-4.1602,-4.1649,-4.1647,-4.1676,-4.1689,-4.1752,-4.178,-4.1752,-4.1859,-4.1843,-4.185,-4.1838,-4.1844,-4.1849,-4.1839,-4.1748,0,0,0,0,0,-4.1317,-4.1367,-4.1424,-4.1482,-4.1504,-4.1545,-4.1575,-4.1592,-4.1638,-4.1657,-4.1693,-4.1737,-4.1786,-4.1817,-4.1865,-4.1935,-4.1946,-4.1963,-4.1968,-4.1971,-4.1976,-4.2014,-4.2021,-4.1941,-4.194,-4.194,0,0,-4.133,-4.1374,-4.1403,-4.1481,-4.1518,-4.1567,-4.1561,-4.1614,-4.165,-4.1664,-4.1728,-4.1757,-4.1807,-4.1875,-4.1906,-4.1899,-4.2002,-4.1976,-4.1979,-4.1982,-4.2018,-4.2026,-4.2033,-4.1943,-4.1943,-4.1942,0,0,-4.1379,-4.1419,-4.1471,-4.1508,-4.1564,-4.1592,-4.1604,-4.1662,-4.1682,-4.1748,-4.1759,-4.1803,-4.1887,-4.1923,-4.1952,-4.2017,-4.2021,-4.2032,-4.2054,-4.2091,-4.2097,-4.2102,-4.2124,-4.2131,-4.2038,-4.2038,-4.2038,0,-4.1387,-4.1465,-4.1496,-4.1549,-4.1582,-4.16,-4.1652,-4.1687,-4.1755,-4.1776,-4.1769,-4.1876,-4.1911,-4.1986,-4.2003,-4.2027,-4.204,-4.2024,-4.2094,-4.21,-4.2106,-4.2126,-4.2134,-4.2038,-4.2038,-4.2038,-4.2038,0,-4.1471,-4.1525,-4.156,-4.1628,-4.1665,-4.1717,-4.1755,-4.179,-4.1804,-4.1832,-4.1898,-4.1942,-4.1999,-4.2019,-4.2033,-4.2097,-4.209,-4.2088,-4.2071,-4.2113,-4.2133,-4.2141,-4.2039,-4.2039,-4.2039,-4.2039,0,0,-4.1513,-4.16,-4.1612,-4.1643,-4.1707,-4.1748,-4.1802,-4.186,-4.1887,-4.1935,-4.1978,-4.2051,-4.205,-4.2083,-4.2101,-4.2134,-4.2181,-4.2127,-4.2129,-4.2133,-4.2252,-4.2251,-4.226,-4.2186,-4.2188,-4.2189,-4.2247,0,-4.1567,-4.1664,-4.1695,-4.1774,-4.1823,-4.1843,-4.1889,-4.1933,-4.1961,-4.2006,-4.2037,-4.2087,-4.2082,-4.2102,-4.2136,-4.2168,-4.2204,-4.2165,-4.2224,-4.2226,-4.2207,-4.227,-4.2269,-4.2321,-4.2255,-4.2256,-4.2257,0,-4.1643,-4.1693,-4.1778,-4.1838,-4.1859,-4.19,-4.1956,-4.1999,-4.205,-4.2068,-4.2106,-4.2123,-4.2178,-4.2161,-4.2236,-4.2209,-4.2236,-4.2256,-4.2258,-4.2262,-4.2241,-4.2272,-4.2339,-4.2346,-4.227,-4.2269,-4.2268,0,-4.1662,-4.1751,-4.1814,-4.184,-4.1911,-4.1939,-4.197,-4.2019,-4.2052,-4.2101,-4.2122,-4.2177,-4.2205,-4.2246,-4.2277,-4.2262,-4.2349,-4.2335,-4.2363,-4.2362,-4.2377,-4.2375,-4.2446,-4.24,-4.24,-4.24,-4.24,0,-4.1717,-4.1767,-4.1823,-4.1861,-4.1918,-4.1954,-4.2009,-4.204,-4.2084,-4.2128,-4.2149,-4.2188,-4.2228,-4.2273,-4.2297,-4.2355,-4.2368,-4.2383,-4.2388,-4.2379,-4.2377,-4.2395,-4.239,-4.2402,-4.2402,-4.2401,-4.2401,0,-4.1746,-4.1786,-4.1855,-4.1918,-4.1935,-4.1974,-4.2027,-4.2064,-4.2094,-4.2149,-4.2164,-4.2211,-4.2265,-4.2301,-4.237,-4.2386,-4.2448,-4.2454,-4.2431,-4.2433,-4.2458,-4.2455,-4.254,-4.2552,-4.2501,-4.2501,-4.2502,0,-4.1777,-4.1817,-4.1885,-4.1916,-4.1948,-4.1998,-4.2033,-4.207,-4.2104,-4.2166,-4.2195,-4.2251,-4.2298,-4.2383,-4.2423,-4.2476,-4.2481,-4.2508,-4.2488,-4.2478,-4.2478,-4.2474,-4.2477,-4.2509,-4.2509,-4.251,-4.251,0,-4.1827,-4.1845,-4.1895,-4.1953,-4.1994,-4.204,-4.2086,-4.2111,-4.2155,-4.2193,-4.225,-4.2286,-4.2358,-4.2413,-4.247,-4.25,-4.2512,-4.2517,-4.2525,-4.2515,-4.2499,-4.2505,-4.2436,-4.2513,-4.2513,-4.2513,-4.2512,-4.2512,-4.1856,-4.1892,-4.1946,-4.2001,-4.2041,-4.2084,-4.2122,-4.2158,-4.2207,-4.2268,-4.2288,-4.2346,-4.2396,-4.2474,-4.2506,-4.2552,-4.2548,-4.2562,-4.2564,-4.2566,-4.2565,-4.2495,-4.2562,-4.2562,-4.2562,-4.2562,-4.2562,0,-4.1905,-4.1942,-4.1992,-4.2057,-4.21,-4.2112,-4.2164,-4.2198,-4.225,-4.2297,-4.2343,-4.2408,-4.2462,-4.2507,-4.2563,-4.259,-4.2597,-4.2603,-4.26,-4.2606,-4.2566,-4.2552,-4.2597,-4.2597,-4.2597,-4.2597,-4.2597,-4.2597,-4.1936,-4.1997,-4.2022,-4.2103,-4.2139,-4.2197,-4.2226,-4.2266,-4.2303,-4.2375,-4.2421,-4.2451,-4.2497,-4.2556,-4.2606,-4.2618,-4.2636,-4.264,-4.2653,-4.2613,-4.2609,-4.2605,-4.2592,-4.2645,-4.2645,-4.2689,-4.269,-4.269]},{"header":{"parameterUnit":"m.s-1","parameterCategory":1,"la1":30.2991,"la2":30.254,"lo1":-89.0895,"lo2":-89.0444,"dy":0.0017,"dx":0.0017,"nx":28,"ny":28,"refTime":"2023-09-02T21:00:00:Z","depth":0,"parameterNumber":3,"parameterNumberName":"V-component_of_WINDS"},"data":[0,0,0,0,0,0,0,0,0,0,0,0,0,0,0,0,0,0,0,0,0,0,0,0,0,0,0,0,0,0,0,0,0,0,0,0,0,0,0,0,0,0,0,0,0,0,0,0,0,0,0,0,0,0,0,0,0,0,1.7081,1.708,0,1.7015,1.7015,1.7014,1.692,1.6918,1.6917,1.6915,1.6846,1.6846,1.6846,0,0,0,0,0,0,0,0,0,0,0,0,0,1.7126,1.7126,1.7081,1.708,1.7079,1.7016,1.7015,1.7014,1.692,1.6918,1.6916,1.6914,1.6846,1.6846,1.6846,0,0,0,0,0,0,0,0,0,0,0,0,0,1.7088,1.7126,1.7081,1.7025,1.7019,1.7016,1.7015,1.7013,1.6921,1.6918,1.6916,1.6913,1.6847,1.6846,1.6846,1.6891,0,0,1.6844,1.6844,0,0,0,0,0,0,0,0,1.709,1.7086,1.7034,1.7029,1.7023,1.6973,1.7005,1.6972,1.6921,1.6958,1.6915,1.6912,1.689,1.6886,1.6879,1.6888,1.6885,1.6844,1.6844,1.6844,1.6843,0,0,0,0,0,0,0,1.7093,1.7089,1.7055,1.7033,1.7026,1.7003,1.6995,1.6999,1.6939,1.6955,1.6948,1.6941,1.6887,1.688,1.6877,1.6884,1.6844,1.6844,1.6843,1.6843,1.6929,1.6932,0,0,0,0,0,0,1.7104,1.7092,1.7057,1.7053,1.7051,1.7005,1.6996,1.6992,1.6938,1.6928,1.6943,1.6937,1.6882,1.6877,1.6874,1.6924,1.6844,1.6843,1.6843,1.6927,1.693,1.6932,0,0,0,0,0,0,1.7105,1.7102,1.706,1.707,1.7063,1.7006,1.7003,1.6992,1.6984,1.693,1.6919,1.6947,1.688,1.6875,1.6888,1.6921,1.6843,1.6842,1.6923,1.6927,1.6931,1.7026,0,0,0,0,0,0,1.7107,1.7103,1.7119,1.7072,1.7063,1.7075,1.7005,1.6992,1.6984,1.6975,1.693,1.6921,1.6877,1.6889,1.6888,1.6919,1.6842,1.692,1.6925,1.693,1.7019,1.7032,1.7043,0,0,0,0,0,1.7109,1.7148,1.712,1.7117,1.7082,1.7077,1.7072,1.7022,1.6987,1.7003,1.6969,1.6922,1.6918,1.6892,1.6889,1.692,1.6918,1.6924,1.6929,1.7014,1.703,1.7043,0,0,0,0,0,0,1.7199,1.714,1.7109,1.7134,1.7111,1.7061,1.7079,1.704,1.7026,1.7018,1.6957,1.6948,1.6969,1.6946,1.6917,1.6963,1.6911,1.6917,1.6976,1.6991,1.7003,1.7007,1.6842,0,0,0,0,0,1.7222,1.7223,1.7171,1.7198,1.7188,1.7137,1.7132,1.7096,1.707,1.7059,1.7026,1.7002,1.6996,1.6992,1.6983,1.7017,1.7006,1.7037,1.7049,1.706,1.7064,1.7082,1.7095,1.6951,1.6951,1.6951,0,0,1.7269,1.7237,1.724,1.7215,1.7193,1.7196,1.7129,1.7133,1.7135,1.706,1.707,1.7046,1.7015,1.704,1.7049,1.7021,1.7103,1.7067,1.7075,1.7075,1.7089,1.7103,1.7115,1.6955,1.6955,1.6954,0,0,1.7355,1.7331,1.7351,1.7331,1.73,1.7266,1.7271,1.7228,1.7209,1.7219,1.7164,1.7165,1.7155,1.7136,1.7125,1.7209,1.7166,1.7208,1.727,1.7288,1.7299,1.7309,1.7339,1.735,1.7213,1.7213,1.7214,0,1.7416,1.7417,1.7366,1.7375,1.7366,1.7301,1.7321,1.7304,1.7272,1.7267,1.7238,1.7225,1.72,1.722,1.7241,1.7234,1.7238,1.7211,1.7302,1.7311,1.7319,1.7347,1.7359,1.7219,1.7218,1.7218,1.7217,0,1.7495,1.7497,1.7517,1.7489,1.7482,1.7497,1.7448,1.7448,1.7414,1.7384,1.7396,1.7365,1.7349,1.7351,1.7317,1.7367,1.7351,1.7313,1.7259,1.7339,1.7364,1.7374,1.7226,1.7224,1.7223,1.7222,0,0,1.7632,1.7578,1.7586,1.7573,1.7536,1.7536,1.755,1.7535,1.7537,1.7518,1.7527,1.7522,1.7487,1.7475,1.7439,1.7455,1.7524,1.7414,1.7413,1.7436,1.7578,1.7607,1.762,1.7497,1.7499,1.75,1.7581,0,1.771,1.7728,1.7684,1.7713,1.7715,1.7656,1.7667,1.7646,1.7619,1.7617,1.7587,1.7585,1.7539,1.7532,1.7545,1.7513,1.7552,1.7507,1.7505,1.7505,1.7513,1.7633,1.7662,1.7739,1.759,1.7592,1.7593,0,1.7802,1.7789,1.782,1.7783,1.7782,1.7793,1.7778,1.7777,1.7753,1.7732,1.7721,1.768,1.7691,1.7642,1.7657,1.7627,1.7624,1.7609,1.7611,1.7607,1.7553,1.7632,1.7762,1.7774,1.7608,1.7607,1.7606,0,1.7899,1.7889,1.7906,1.7897,1.7855,1.7865,1.7848,1.7821,1.7816,1.7804,1.78,1.7789,1.7782,1.7775,1.7732,1.7701,1.7753,1.77,1.7736,1.7737,1.7747,1.7747,1.7879,1.7748,1.7748,1.7748,1.7748,0,1.7989,1.801,1.7949,1.796,1.7982,1.7932,1.7956,1.7933,1.7911,1.7916,1.7864,1.7871,1.7815,1.7816,1.7783,1.78,1.7798,1.7782,1.7772,1.7785,1.7788,1.7781,1.7774,1.7751,1.775,1.775,1.7749,0,1.8099,1.806,1.8074,1.8035,1.8025,1.8044,1.8009,1.8018,1.799,1.7997,1.7996,1.7951,1.795,1.7908,1.7897,1.7875,1.7906,1.7887,1.7914,1.7908,1.7946,1.7943,1.8077,1.8092,1.7954,1.7955,1.7956,0,1.8158,1.8173,1.8136,1.8136,1.8122,1.8123,1.8119,1.8072,1.8069,1.8045,1.8057,1.8052,1.8045,1.8045,1.8012,1.8004,1.7984,1.8032,1.7982,1.7996,1.7984,1.7983,1.7985,1.8042,1.8043,1.8045,1.8046,0,1.8268,1.8249,1.8244,1.8234,1.8231,1.8221,1.8207,1.8211,1.8159,1.816,1.8158,1.8153,1.8144,1.8139,1.8126,1.8109,1.8069,1.8063,1.807,1.8083,1.8098,1.809,1.7941,1.8059,1.8058,1.8057,1.8056,1.8055,1.8353,1.8364,1.8341,1.8339,1.8324,1.8314,1.832,1.8294,1.8292,1.8281,1.8254,1.8257,1.8235,1.8214,1.8201,1.8203,1.8179,1.819,1.8193,1.8196,1.8204,1.81,1.8201,1.82,1.82,1.82,1.8199,0,1.846,1.8443,1.8441,1.8425,1.8424,1.8389,1.8373,1.8375,1.8378,1.8362,1.8357,1.8357,1.8353,1.8321,1.8314,1.8323,1.8305,1.8322,1.832,1.8317,1.8226,1.8219,1.8337,1.8337,1.8337,1.8337,1.8337,1.8337,1.8515,1.8532,1.8511,1.8521,1.8504,1.8507,1.8501,1.8492,1.8479,1.8481,1.8478,1.8458,1.8436,1.8428,1.8424,1.8414,1.8414,1.8438,1.8423,1.8337,1.8324,1.8311,1.8304,1.8438,1.8439,1.8514,1.8514,1.8515]}]]